星链-31056 (STARLINK-31056 )

导读

STARLINK-31056是美国SpaceX公司星链星座中的一颗低轨通信卫星,于2023年12月8日发射。星链项目旨在构建全球卫星互联网,为全球尤其是偏远地区提供高速宽带接入。作为量产卫星,它配备Ku/Ka波段通信载荷与氪离子霍尔推进器,具备自主避撞能力,运行于低地球轨道,设计寿命约5-7年,退役后会再入大气层焚毁,助力星链实现全球覆盖与多元通信应用。

基本信息
目录编号:
58550
目录名称:
STARLINK-31056
国际标识:
2023-192V
轨道中心:
EARTH
卫星名称:
星链-31056
卫星全名:
星链-31056 (STARLINK-31056 )
卫星状态:
在轨 (已飞行1001 天)
发射日期:
2023-12-08 UTC
国别 :
美国 (US)
星等 :
--
轨道信息
数据来源 国际轨道数据
星历时间: 2026-09-03T21:41:23+0800
16小时前
查看轨道信息
半长轴: 6840.864km
偏心率: 0.0001386
轨道倾角: 53.160°
近地点辐角 67.085°
升交点赤经 314.815°
平近点角 293.030°
近地点: 461.778km
远地点: 463.676km
周期: 93.848分钟
每日圈数: 15.343922
详细信息
固有亮度:
5
最大亮度:
0.3
卫星平台:
Starlink v2.0 mini
覆盖范围:
全球
运营商:
太空探索技术公司
运营商所在国:
美国
制造商(研发单位):
太空探索技术公司
制造商所在国:
美国
使用方式:
暂无
卫星简介
星链(Starlink)计划是由太空探索技术公司(SpaceX)提出的一个巨型低轨卫星互联网星座项目,计划在2019年至2024年间在太空搭建由约1.2万颗卫星组成的“星链”网络,其中1584颗将部署在地球上空550千米处的近地轨道,并从2020年开始工作。该卫星仍在工作。
2D轨道图
3D轨道图
轨道高度分析图
轨道倾角分析图
轨道综合分析图
查看轨道综合分析图
交会数据列表
事件ID 空间交会对象 最接近时刻(TCA) 交会距离 交会风险概率(CRP) 交会风险指数(CRI) 操作
CDM_260903-223004-302305-855023
2026-09-03T
22:30:09+0000
0.832 km
远距离
3.125328E-5 中风险 0.65
CDM_260904-204005-855006-344621
2026-09-04T
20:40:09+0000
1.393 km
极远距离
5.320398E-6 低风险 0.5
CDM_260904-190605-855006-344621
2026-09-04T
19:06:21+0000
1.544 km
极远距离
3.822275E-6 低风险 0.47
CDM_260903-083305-186605-855021
2026-09-03T
08:33:58+0000
2.624 km
极远距离
7.013967E-7 极低风险 0.32
CDM_260903-092005-186605-855021
2026-09-03T
09:20:53+0000
2.894 km
极远距离
6.194789E-7 极低风险 0.31
CDM_260903-075205-212705-855021
2026-09-03T
07:52:09+0000
2.961 km
极远距离
6.070944E-7 极低风险 0.31